Total_Precipitation_Accumulation
0.89 0.89 0.88 0.79 0.83 0.97 1.14 1.33 1.52 1.29 0.69 0.32 0.37 0.40 0.41 0.37 0.42 0.36 0.22 0.30 0.23 0.13 0.13 0.16 0.17 0.21 0.28 0.38 0.52 0.68 0.94 1.22 1.19 1.01 0.89 0.88 0.57 0.36
0.90 0.88 0.90 0.91 0.89 0.83 0.77 0.82 0.99 1.14 0.84 0.23 0.18 0.22 0.31 0.43 0.72 0.84 0.79 0.94 0.65 0.45 0.35 0.28 0.21 0.16 0.17 0.20 0.24 0.29 0.40 0.62 0.79 0.79 0.76 0.77 0.89 0.72
0.78 0.94 1.00 1.11 1.24 1.23 1.27 1.31 1.32 1.42 1.38 0.65 0.42 0.41 0.42 0.40 0.39 0.46 0.64 0.75 0.85 0.96 0.80 0.62 0.48 0.38 0.30 0.28 0.28 0.27 0.27 0.30 0.37 0.43 0.46 0.46 0.44 0.60
0.15 0.21 0.26 0.38 0.55 0.71 0.88 1.02 1.16 1.32 1.57 1.14 0.69 0.68 0.72 0.72 0.67 0.55 0.54 0.60 0.65 0.89 0.93 0.91 0.84 0.69 0.58 0.53 0.44 0.36 0.30 0.25 0.23 0.25 0.28 0.30 0.36 0.37
0.00 0.01 0.02 0.04 0.06 0.10 0.16 0.22 0.29 0.37 0.51 0.57 0.42 0.43 0.55 0.74 0.88 0.85 0.77 0.75 0.74 0.98 0.94 0.93 0.96 0.89 0.80 0.73 0.73 0.70 0.56 0.37 0.27 0.24 0.25 0.24 0.26 0.38
0.00 0.00 0.00 0.00 0.00 0.00 0.01 0.01 0.02 0.06 0.10 0.14 0.12 0.15 0.20 0.31 0.48 0.58 0.58 0.52 0.47 0.49 0.56 0.56 0.64 0.64 0.69 0.72 0.63 0.57 0.59 0.56 0.54 0.46 0.32 0.27 0.24 0.26
0.00 0.00 0.00 0.00 0.01 0.01 0.00 0.00 0.01 0.03 0.04 0.04 0.06 0.07 0.11 0.17 0.21 0.25 0.30 0.37 0.44 0.49 0.41 0.33 0.27 0.23 0.28 0.40 0.52 0.60 0.56 0.51 0.45 0.42 0.37 0.32 0.28 0.27
0.00 0.00 0.00 0.00 0.00 0.00 0.00 0.02 0.02 0.03 0.03 0.05 0.04 0.03 0.03 0.05 0.12 0.20 0.29 0.37 0.38 0.32 0.32 0.29 0.26 0.21 0.15 0.15 0.27 0.39 0.45 0.43 0.37 0.31 0.30 0.35 0.36 0.32
0.00 0.00 0.00 0.00 0.00 0.00 0.00 0.00 0.01 0.02 0.05 0.05 0.03 0.05 0.05 0.05 0.08 0.10 0.10 0.11 0.10 0.09 0.21 0.30 0.29 0.30 0.22 0.23 0.24 0.18 0.28 0.34 0.32 0.29 0.29 0.30 0.34 0.43
0.00 0.00 0.00 0.00 0.00 0.00 0.00 0.00 0.00 0.01 0.03 0.06 0.05 0.06 0.10 0.13 0.16 0.15 0.09 0.08 0.09 0.08 0.14 0.21 0.16 0.22 0.20 0.22 0.31 0.27 0.29 0.31 0.31 0.30 0.26 0.27 0.31 0.34
0.00 0.00 0.00 0.00 0.00 0.00 0.00 0.00 0.00 0.00 0.03 0.09 0.13 0.19 0.21 0.22 0.17 0.16 0.23 0.24 0.22 0.13 0.09 0.09 0.09 0.14 0.16 0.17 0.20 0.29 0.31 0.36 0.42 0.47 0.37 0.31 0.31 0.35
0.00 0.00 0.00 0.00 0.00 0.01 0.01 0.01 0.01 0.00 0.00 0.02 0.05 0.12 0.20 0.25 0.30 0.20 0.12 0.14 0.22 0.30 0.27 0.23 0.14 0.10 0.12 0.12 0.15 0.22 0.24 0.28 0.30 0.35 0.57 0.60 0.44 0.37
0.00 0.00 0.00 0.00 0.01 0.02 0.03 0.02 0.03 0.03 0.03 0.02 0.03 0.10 0.17 0.26 0.30 0.31 0.29 0.28 0.23 0.16 0.14 0.22 0.24 0.26 0.24 0.11 0.06 0.11 0.12 0.16 0.20 0.23 0.31 0.43 0.56 0.44
0.00 0.00 0.00 0.00 0.02 0.02 0.02 0.02 0.04 0.05 0.03 0.03 0.03 0.06 0.13 0.19 0.25 0.30 0.38 0.47 0.45 0.37 0.24 0.22 0.17 0.17 0.19 0.18 0.15 0.11 0.12 0.11 0.14 0.15 0.20 0.37 0.48 0.46
0.01 0.01 0.02 0.02 0.02 0.01 0.01 0.01 0.02 0.01 0.02 0.02 0.03 0.05 0.06 0.11 0.20 0.35 0.47 0.50 0.57 0.60 0.54 0.52 0.43 0.30 0.25 0.21 0.14 0.11 0.18 0.19 0.14 0.13 0.16 0.27 0.37 0.42
0.01 0.02 0.03 0.03 0.02 0.01 0.00 0.00 0.01 0.02 0.05 0.08 0.06 0.06 0.09 0.14 0.20 0.29 0.37 0.40 0.45 0.45 0.51 0.53 0.50 0.48 0.45 0.39 0.31 0.20 0.17 0.22 0.26 0.20 0.19 0.25 0.33 0.37
0.05 0.05 0.02 0.01 0.01 0.01 0.00 0.00 0.01 0.02 0.06 0.08 0.10 0.11 0.11 0.14 0.16 0.16 0.25 0.32 0.42 0.41 0.37 0.39 0.47 0.50 0.47 0.41 0.41 0.36 0.27 0.19 0.17 0.23 0.25 0.25 0.25 0.28
0.06 0.06 0.03 0.03 0.03 0.03 0.02 0.02 0.01 0.03 0.06 0.09 0.10 0.11 0.13 0.13 0.15 0.22 0.25 0.27 0.33 0.32 0.39 0.43 0.43 0.55 0.60 0.54 0.46 0.38 0.35 0.25 0.17 0.13 0.17 0.23 0.20 0.16
0.06 0.04 0.03 0.02 0.02 0.01 0.01 0.01 0.01 0.01 0.04 0.09 0.13 0.13 0.16 0.20 0.28 0.24 0.24 0.31 0.31 0.33 0.40 0.46 0.54 0.61 0.61 0.46 0.35 0.33 0.33 0.33 0.25 0.19 0.18 0.17 0.15 0.12
0.02 0.02 0.01 0.01 0.02 0.02 0.02 0.03 0.03 0.02 0.02 0.05 0.12 0.16 0.20 0.27 0.29 0.23 0.24 0.25 0.25 0.27 0.35 0.43 0.48 0.46 0.45 0.29 0.32 0.35 0.34 0.39 0.36 0.24 0.20 0.21 0.21 0.22
0.01 0.02 0.02 0.02 0.02 0.03 0.03 0.04 0.04 0.05 0.06 0.10 0.09 0.13 0.16 0.23 0.23 0.24 0.29 0.26 0.24 0.26 0.26 0.23 0.21 0.38 0.54 0.56 0.66 0.54 0.50 0.48 0.45 0.34 0.21 0.18 0.23 0.27
0.03 0.03 0.03 0.03 0.03 0.04 0.04 0.07 0.10 0.08 0.05 0.05 0.04 0.05 0.08 0.16 0.24 0.24 0.25 0.29 0.21 0.16 0.18 0.26 0.44 0.52 0.57 0.53 0.36 0.27 0.35 0.42 0.47 0.45 0.39 0.31 0.26 0.17
0.05 0.06 0.04 0.04 0.05 0.09 0.10 0.10 0.08 0.05 0.04 0.07 0.06 0.06 0.08 0.12 0.14 0.18 0.23 0.26 0.23 0.24 0.23 0.31 0.43 0.47 0.47 0.39 0.36 0.37 0.36 0.38 0.33 0.35 0.38 0.32 0.22 0.12